Wind_Speed
78 75 70 65 62 60 59 57 55 53 52 52 52 54 56 56 56 57 58 56 55 53 51 50 50 51 52 52 52 52 53 54 56 59 61 61 61 59 56 53 53 54 54 55 56 57 59 60 60 61 61 62 61 61 62 62 61 60 60 59 59 58 57 56 54 52 50 49 48 47 46 45 43 41 41 41 41 39 38 36 34 32 31 32 33 34
80 74 70 67 66 65 63 61 59 56 55 54 53 53 54 55 56 58 60 58 57 55 53 52 51 50 51 51 51 51 51 53 56 58 59 59 58 55 53 52 52 53 53 54 55 55 56 57 58 60 60 61 61 61 61 61 61 60 59 59 58 58 57 55 54 52 51 50 49 48 47 47 47 46 44 44 44 42 40 38 37 36 34 34 35 35
79 73 71 71 70 68 66 64 62 59 57 56 54 52 52 53 56 59 60 59 57 56 55 54 52 51 50 50 50 50 51 52 55 56 56 55 52 51 50 51 53 53 53 54 54 53 53 54 56 57 58 59 59 60 60 60 60 59 59 59 58 58 57 57 55 53 52 51 49 48 47 47 48 49 48 46 45 45 44 42 41 41 40 37 36 37
79 75 74 74 73 71 68 66 64 61 59 58 55 53 51 51 54 58 59 57 56 55 54 54 53 52 50 49 49 50 51 52 53 53 51 49 48 48 49 50 52 54 54 55 54 52 52 53 53 54 55 55 56 56 57 57 58 58 58 58 58 58 58 58 56 53 52 51 50 49 48 47 47 49 49 48 47 47 46 45 44 44 44 42 40 38
82 79 77 76 75 74 71 68 65 62 60 58 55 53 52 51 53 57 58 57 55 54 54 53 53 50 49 48 49 49 50 51 50 48 46 44 45 47 47 48 50 52 54 55 55 53 53 52 52 53 53 52 52 52 53 53 53 54 55 56 57 57 58 58 55 52 51 51 49 49 49 49 48 47 48 49 48 47 48 48 47 46 46 46 44 42
86 83 81 79 76 75 72 69 66 63 61 59 56 53 53 52 53 56 57 55 54 53 52 52 51 49 48 48 48 48 48 48 48 45 42 41 43 45 46 47 48 50 52 54 54 54 54 53 52 52 52 51 50 50 49 49 49 50 51 53 54 55 56 55 54 52 51 49 47 47 48 47 46 46 47 48 48 47 47 47 47 47 46 46 46 45
88 86 84 82 79 76 73 70 68 65 62 60 56 55 54 54 55 56 55 53 51 50 50 49 48 47 48 47 47 48 47 47 46 43 41 40 42 44 45 47 47 47 49 51 52 53 54 53 52 52 51 50 49 48 47 46 46 46 47 49 51 52 52 51 50 50 48 46 44 43 43 42 41 42 43 45 46 46 47 47 45 45 45 46 46 47
89 87 86 84 81 78 74 70 68 66 63 61 58 57 56 56 57 57 55 53 51 50 49 47 45 45 45 45 47 47 46 44 43 42 41 41 43 44 45 46 46 46 46 47 49 51 53 53 52 51 50 50 49 48 46 45 45 44 45 46 47 47 47 46 45 43 42 42 42 40 40 39 38 36 36 39 42 42 44 45 45 44 44 45 46 47
91 89 88 86 83 79 75 72 70 69 66 63 62 60 59 60 60 59 57 55 52 50 48 45 43 42 41 42 44 43 42 41 40 41 42 43 44 44 44 45 45 45 44 45 46 49 51 52 51 51 50 50 49 47 46 46 44 43 43 43 43 42 41 40 37 35 36 37 35 33 33 35 36 37 38 39 40 39 39 42 44 44 43 43 43 44
94 91 90 88 84 80 77 75 74 71 68 67 66 64 62 62 62 61 58 56 53 50 46 44 41 38 37 39 40 40 39 39 40 42 44 44 44 43 43 44 45 44 44 43 45 47 49 51 51 50 50 49 48 46 46 46 45 43 42 41 39 37 35 33 31 31 33 32 29 29 30 33 37 40 42 42 41 39 39 41 43 43 42 41 41 42
96 94 92 89 85 83 81 79 77 74 72 71 70 67 65 63 62 61 58 57 54 48 45 44 40 36 36 37 37 38 39 40 42 43 45 45 45 44 44 45 45 44 43 43 43 45 47 50 51 50 49 48 47 46 46 46 44 43 41 39 36 33 29 27 27 30 31 29 29 31 32 35 38 42 44 44 43 41 39 40 40 40 41 41 42 42
98 95 93 89 87 86 84 82 80 77 75 75 72 69 66 64 62 61 58 56 51 46 46 44 40 36 34 33 34 36 40 42 42 43 45 46 46 44 44 43 44 43 42 42 42 43 45 49 50 50 49 48 47 46 45 45 43 42 39 37 34 30 25 24 27 30 30 29 30 33 34 36 38 42 44 46 46 44 41 40 39 40 43 44 45 45
97 95 93 91 89 87 85 84 82 79 78 76 73 69 66 64 62 60 57 53 48 46 48 46 41 37 32 32 34 35 39 41 40 42 45 46 45 43 42 42 43 43 42 42 41 42 44 47 49 49 49 48 46 45 44 43 42 40 37 34 32 28 24 25 28 28 28 30 31 33 36 37 38 41 43 46 48 48 46 44 42 43 46 48 48 47
98 96 95 92 89 87 84 82 80 77 76 74 70 67 65 63 60 57 54 51 48 48 49 46 42 37 32 33 34 35 38 41 41 43 43 43 42 41 41 41 41 41 41 41 41 41 43 45 47 48 48 47 46 45 44 42 41 39 36 33 29 26 23 24 26 26 27 30 31 33 37 39 40 42 44 47 50 51 51 49 48 49 49 49 49 48
98 96 93 90 87 85 83 80 77 76 76 74 70 67 65 62 58 55 53 50 49 48 49 47 41 35 31 33 34 35 39 41 42 41 39 39 39 39 39 40 40 41 41 41 41 41 42 43 46 47 46 46 45 44 43 41 40 38 35 32 28 25 22 21 24 25 25 29 33 35 38 41 42 43 46 49 51 53 53 53 53 51 50 49 49 49
98 95 92 89 86 85 83 80 79 80 79 76 72 68 64 61 59 57 55 52 51 49 49 47 40 34 32 33 36 36 37 40 40 39 37 36 37 39 40 40 41 41 41 41 41 41 42 43 45 45 45 45 44 43 43 41 39 37 35 31 27 23 20 20 24 27 28 32 36 38 40 42 44 45 47 49 50 50 51 52 51 50 49 49 49 48
98 96 94 91 88 86 84 82 81 81 78 74 70 65 63 62 60 58 56 54 52 49 48 45 39 36 34 34 37 36 35 37 38 38 36 36 37 39 40 40 41 41 41 41 41 40 41 42 43 44 44 44 43 43 43 41 40 38 35 31 28 24 22 21 24 29 33 38 41 42 44 45 45 46 47 48 48 47 48 49 49 49 49 49 47 47
98 96 95 92 89 86 85 84 83 81 77 72 66 64 64 64 61 58 56 54 50 47 46 43 38 36 35 36 37 36 34 35 36 37 37 36 38 39 40 41 40 40 40 41 41 40 40 41 42 43 43 43 43 42 42 42 41 39 36 33 30 28 26 25 27 31 37 42 43 44 46 47 47 46 47 48 49 49 49 49 49 49 48 46 46 45
99 97 96 93 91 88 87 86 85 81 76 71 68 67 66 63 58 56 55 52 49 46 45 42 37 36 36 36 38 36 34 34 36 37 36 36 39 41 41 41 39 39 39 40 41 40 40 41 41 41 42 42 42 42 42 42 42 41 39 36 33 31 29 29 31 35 37 37 39 41 43 45 46 47 48 49 50 50 49 48 47 45 44 43 43 42
100 98 97 95 93 91 88 85 82 78 75 72 70 68 65 61 58 56 54 51 48 46 44 41 37 36 35 36 38 36 34 34 36 37 37 38 41 42 40 40 39 39 39 39 41 41 41 40 40 40 40 40 41 41 41 41 42 42 42 39 36 35 34 35 37 37 35 32 32 36 38 39 42 44 46 48 48 47 46 44 42 41 40 40 40 40
100 99 97 96 94 91 86 81 77 75 73 70 68 66 63 60 58 57 54 51 48 46 44 42 38 36 36 38 38 37 35 35 36 37 38 40 41 40 39 39 39 39 39 39 40 41 40 40 40 40 39 39 40 40 41 42 42 43 43 42 39 38 38 39 39 38 35 33 32 34 36 37 39 41 42 43 42 42 41 40 39 39 39 39 39 40
100 99 98 95 91 86 82 79 78 77 75 71 67 65 63 60 58 56 53 50 48 47 45 43 39 38 38 39 39 38 36 36 37 37 38 39 39 39 39 39 40 40 40 40 40 40 40 39 40 41 40 39 39 40 41 41 41 42 43 43 42 41 40 40 39 38 37 37 36 37 37 37 37 38 38 38 38 38 37 37 37 38 39 39 40 40
100 99 97 92 88 85 84 84 83 81 78 75 71 68 64 61 58 55 51 49 48 47 45 42 39 38 39 39 39 38 36 35 37 38 38 38 38 38 38 39 40 40 40 40 40 39 39 38 39 40 40 40 39 39 39 40 41 41 42 42 42 42 41 41 40 39 39 39 39 39 38 38 38 37 37 36 36 36 36 36 36 37 38 39 39 39
100 99 95 92 91 91 90 89 86 83 80 77 73 69 64 60 58 55 53 51 49 47 44 42 40 39 39 39 39 38 35 35 37 39 38 37 36 37 38 39 40 40 40 40 39 39 38 37 38 39 40 40 40 39 39 39 40 40 40 41 41 41 41 41 41 40 39 39 39 39 39 39 38 38 37 37 36 36 36 36 37 38 39 39 40 41
99 98 96 95 95 95 94 92 89 84 79 74 71 68 64 61 60 57 55 53 50 46 44 42 41 40 40 40 40 38 36 35 36 39 38 36 36 38 38 39 40 40 40 39 39 39 38 38 38 39 40 41 40 40 39 39 38 38 39 39 39 40 40 40 40 39 39 39 38 38 38 38 38 38 38 38 38 38 38 39 39 40 41 42 43 44
98 98 97 95 93 91 88 84 80 76 72 70 69 67 65 63 60 58 56 53 50 46 44 42 42 41 41 41 40 38 37 35 35 37 38 37 38 40 39 40 40 40 39 39 39 39 39 39 38 38 38 39 39 40 39 38 38 37 38 38 39 39 39 39 39 38 38 38 38 38 38 38 38 39 39 39 40 40 40 41 42 42 43 45 46 47
95 95 94 92 89 86 81 76 74 72 70 68 67 66 64 63 61 59 56 53 50 47 45 43 42 41 41 41 41 39 38 36 36 37 38 39 40 41 40 39 40 40 39 39 39 39 40 39 38 37 36 37 38 39 39 38 37 37 37 38 38 38 38 38 38 38 38 38 38 38 38 39 39 40 40 41 42 42 43 43 44 45 46 47 48 49
89 90 90 88 86 84 82 79 77 74 72 70 68 66 64 63 61 59 56 52 50 48 47 45 43 43 42 42 41 40 39 38 36 37 39 42 43 42 40 39 39 39 40 40 40 40 40 39 38 37 36 36 37 37 38 38 38 38 38 39 38 38 39 39 39 38 38 38 39 39 40 40 41 42 43 43 44 44 44 45 45 46 47 48 49 49
84 85 85 85 83 81 80 79 77 74 73 71 69 66 63 61 60 58 55 53 51 49 47 46 45 44 43 43 42 41 40 38 36 36 39 42 43 42 40 38 37 39 41 42 42 41 41 40 40 38 37 36 36 36 36 37 37 38 39 39 38 38 39 39 39 39 39 39 39 40 41 42 42 43 44 44 44 44 45 45 46 46 47 48 48 48
81 81 82 82 81 79 77 76 75 73 72 71 69 67 64 61 59 57 55 53 50 48 47 46 45 44 43 43 43 41 40 38 35 35 38 41 42 41 40 38 38 39 42 43 43 43 42 41 40 38 36 35 34 34 35 36 37 37 38 37 37 38 39 40 40 40 40 40 40 40 41 41 42 42 43 43 43 43 43 44 45 45 46 46 46 46
78 79 80 80 79 77 75 74 73 72 71 70 69 67 65 62 59 57 55 52 49 48 47 46 45 45 44 44 44 43 40 38 36 35 38 40 41 40 40 40 39 40 42 42 43 43 42 41 40 38 36 35 33 32 33 34 35 36 36 36 37 37 38 39 39 39 39 39 40 40 40 40 40 41 41 41 41 41 42 43 44 44 45 45 45 45
77 78 78 78 78 77 75 73 71 71 71 70 68 67 65 63 60 57 55 52 50 48 47 47 47 47 47 47 46 45 42 40 37 37 39 41 42 42 42 42 41 41 42 43 43 43 43 42 41 39 37 35 33 31 31 32 33 34 36 36 36 37 38 38 38 38 38 39 39 39 39 39 39 39 39 39 40 41 43 43 43 43 44 44 45 44
76 76 75 75 76 75 73 72 70 70 69 68 67 66 65 63 60 58 55 53 51 49 48 49 49 49 49 48 47 46 44 41 39 38 40 42 44 44 44 43 42 42 43 43 43 43 43 43 41 39 37 35 34 33 32 32 32 34 35 36 36 37 38 38 39 38 38 38 38 38 38 38 38 38 38 39 40 41 42 43 43 43 43 43 43 42
75 74 73 73 73 72 72 71 70 69 67 65 63 63 62 61 60 58 56 54 51 50 50 51 50 49 48 47 46 45 43 42 40 39 38 40 43 46 46 45 43 43 43 43 43 44 44 43 41 39 38 37 37 37 36 34 33 33 34 35 36 37 38 39 39 39 39 39 37 37 36 36 37 37 37 37 37 38 39 41 42 40 39 40 40 41
73 72 72 71 71 71 71 70 68 67 64 62 61 60 59 59 58 56 55 53 52 51 51 51 50 48 47 47 46 45 44 43 41 39 37 38 41 43 45 45 44 43 43 43 44 43 43 43 41 40 39 39 38 37 35 33 31 30 31 32 34 35 37 38 38 39 39 39 38 37 36 34 34 34 34 34 35 37 40 41 41 39 39 40 41 44
72 72 71 70 69 69 68 67 66 64 61 60 59 58 58 57 56 55 53 52 51 51 51 51 49 47 46 47 48 47 46 45 43 41 40 40 41 42 43 44 44 44 43 43 43 42 42 41 39 36 35 38 38 36 34 31 29 30 31 32 34 35 37 38 38 39 39 38 38 37 36 34 34 34 34 35 36 39 41 40 39 41 41 42 43 44
71 70 68 67 66 65 65 64 63 62 61 60 59 58 57 56 55 54 53 52 51 51 51 50 48 47 47 48 49 49 48 46 44 43 42 43 43 43 44 44 44 44 44 43 42 41 42 42 40 37 36 37 38 37 35 32 30 31 32 33 35 36 37 38 38 38 37 36 36 36 36 36 35 34 34 35 35 37 38 35 37 41 42 41 42 44
69 69 67 65 63 63 63 62 61 60 60 59 58 58 57 56 55 54 53 52 52 51 50 49 47 47 48 49 51 51 50 47 46 45 45 45 45 45 45 44 44 45 45 44 44 43 43 43 42 41 40 40 40 38 36 34 32 31 31 33 35 36 36 38 39 38 38 36 34 34 34 34 34 32 32 33 34 34 34 34 37 42 42 41 45 50
68 68 67 65 63 62 61 60 59 59 58 58 57 57 57 57 56 55 54 53 52 51 50 49 48 48 49 52 53 53 51 49 49 48 48 47 47 46 45 44 44 45 45 45 45 43 43 42 42 41 41 42 42 40 38 37 34 31 30 32 35 37 37 38 39 39 39 37 36 36 37 37 38 36 34 34 36 36 35 35 39 43 43 44 49 54
67 66 66 65 63 62 61 60 59 58 58 57 57 58 58 57 56 56 55 54 53 53 52 51 50 50 51 53 54 54 53 52 51 50 49 48 47 46 45 44 44 44 45 45 44 43 43 43 42 43 43 43 42 41 40 38 35 30 28 31 35 36 37 38 38 39 39 39 40 41 41 42 44 42 40 40 42 42 39 38 41 44 45 48 52 55
67 66 65 65 63 62 61 60 60 59 59 59 58 58 58 58 57 58 58 57 56 56 55 54 54 53 54 55 56 55 54 53 53 51 49 48 47 46 45 44 43 44 44 45 45 45 45 45 45 45 45 44 43 42 42 41 37 32 31 33 36 38 39 39 39 40 40 40 41 42 43 44 44 44 43 44 46 46 43 41 42 43 45 49 53 56
68 67 65 64 64 63 62 61 61 61 61 61 61 60 59 59 59 60 59 58 58 57 56 56 55 55 55 56 55 55 54 53 52 50 49 49 48 47 46 45 44 44 45 45 46 46 46 46 46 45 45 45 45 44 43 42 39 36 36 38 39 41 42 43 43 43 42 42 42 42 43 44 44 43 43 44 45 46 45 45 46 47 49 53 56 59
68 68 66 65 65 64 63 62 62 62 63 63 62 62 61 61 61 60 59 58 58 57 56 56 55 54 54 55 54 54 53 53 52 51 50 50 48 47 46 46 46 46 46 47 47 47 47 47 46 46 46 46 46 46 44 43 41 39 39 41 43 44 45 45 45 45 43 42 42 43 44 45 44 43 43 44 45 46 47 48 51 55 57 60 62 64
68 68 67 66 66 65 64 63 63 63 64 64 63 63 62 61 60 59 58 58 58 58 57 56 55 54 54 54 54 54 54 54 53 52 51 50 48 47 47 47 47 47 47 48 48 48 48 48 48 47 47 47 48 48 46 45 43 41 40 43 46 48 48 48 48 47 46 44 43 43 44 44 44 44 45 45 45 47 48 49 52 56 59 61 63 64
68 68 67 66 65 64 64 63 63 64 64 63 63 62 61 60 60 59 58 58 58 57 57 56 55 55 55 55 55 55 55 55 54 53 51 50 50 50 49 49 48 49 48 49 49 49 49 49 49 48 48 48 48 49 49 48 46 44 42 43 45 46 46 46 47 47 46 44 43 43 43 43 44 45 46 47 47 48 49 50 52 54 56 58 60 62
67 67 66 66 65 64 63 63 63 63 63 62 62 61 60 59 59 58 58 58 58 57 57 56 56 56 56 56 56 56 56 55 54 53 52 52 52 52 51 50 49 49 50 50 50 50 51 50 50 50 49 49 48 49 50 50 48 47 46 45 45 45 44 44 46 46 46 44 44 43 43 44 44 45 46 47 48 50 51 52 53 54 55 57 59 61
66 66 66 65 65 64 64 63 63 62 62 62 61 61 60 59 59 59 58 58 58 58 57 56 56 56 56 56 56 56 56 55 55 54 54 54 54 54 52 50 50 50 50 51 51 51 51 52 52 51 51 50 49 49 50 51 51 50 49 49 50 50 49 49 49 49 49 47 46 45 45 45 45 44 44 45 47 48 50 51 52 53 54 56 58 59
66 66 65 65 65 65 64 64 63 63 62 62 61 61 61 60 60 59 59 59 58 58 57 57 56 57 56 57 57 56 56 56 56 55 55 55 55 54 52 51 50 50 50 50 51 52 52 52 52 52 51 51 50 49 50 51 52 52 52 53 53 52 53 53 52 52 51 50 48 48 48 47 47 46 46 46 47 48 49 50 51 51 52 54 55 56
65 66 66 66 65 65 65 64 64 64 64 63 62 62 61 61 60 60 59 59 58 58 57 57 57 57 57 57 57 57 57 56 56 56 55 55 54 53 52 51 51 50 50 51 51 52 52 52 52 52 52 51 51 50 50 51 52 53 54 54 53 52 52 52 51 51 51 51 51 50 50 50 49 48 48 49 49 50 50 51 52 52 53 53 54 55
64 65 66 66 66 66 66 66 66 65 65 64 64 63 62 61 61 60 59 59 59 59 59 58 58 58 58 58 57 57 57 57 56 55 55 55 54 53 52 52 52 51 51 51 51 51 52 52 52 52 52 52 52 51 51 51 52 53 54 54 54 53 52 51 51 51 51 52 52 52 53 53 52 51 51 52 52 52 53 53 54 54 54 55 55 56
63 64 65 66 66 66 66 66 66 66 65 65 64 63 62 61 61 60 60 60 60 60 60 59 59 59 58 58 58 58 58 57 56 56 56 55 55 54 53 53 53 52 52 51 51 51 52 53 54 54 54 53 52 52 52 52 53 53 54 54 54 53 53 53 53 52 52 53 53 53 55 54 53 53 53 53 53 54 55 55 55 56 56 57 58 58
Wind_Direction
221 221 222 222 223 223 224 225 225 225 225 225 225 225 225 225 226 228 230 231 232 234 234 234 233 234 236 236 236 235 235 236 237 238 238 239 240 242 243 244 245 245 245 244 244 244 244 245 245 245 246 246 247 248 249 250 250 251 252 253 253 254 254 254 256 257 258 259 261 263 263 261 262 264 262 260 260 260 262 263 265 269 270 271 276 281
220 219 219 219 220 220 221 222 223 223 224 225 225 224 225 225 226 229 231 231 232 233 234 234 234 234 236 237 237 237 237 237 238 239 239 241 242 244 244 245 245 245 245 245 244 243 244 244 245 246 246 246 247 248 249 250 251 251 252 252 253 254 254 254 255 256 256 258 259 260 263 262 261 262 263 262 262 262 263 263 265 267 268 270 274 277
219 218 218 218 218 219 220 221 222 223 223 224 225 225 225 225 226 229 232 233 234 235 236 236 236 235 236 238 238 238 238 239 240 240 241 242 244 244 244 244 244 244 244 244 244 244 244 244 245 246 246 246 247 248 249 250 251 251 252 252 253 254 255 255 256 256 256 256 257 258 260 262 261 261 262 263 262 262 263 265 265 266 266 268 272 274
218 217 218 218 218 218 219 220 222 223 223 225 226 226 226 226 227 230 232 234 235 237 238 238 238 237 238 239 240 240 240 241 242 243 243 244 244 244 243 242 242 242 243 243 243 243 243 244 245 246 247 247 247 248 249 250 251 252 253 254 254 255 255 257 258 258 257 257 257 257 257 259 262 262 262 262 261 260 261 263 264 265 264 265 270 272
215 215 217 217 218 218 219 220 222 223 224 226 227 227 227 227 228 230 231 232 233 235 237 238 239 239 239 240 241 242 242 243 244 245 246 245 244 243 243 243 243 242 242 243 243 243 243 243 244 246 247 247 248 248 249 250 251 252 253 254 255 256 257 258 259 259 260 260 259 258 257 258 262 263 262 261 261 259 259 260 261 263 264 264 267 270
214 214 215 216 217 218 218 219 220 221 222 224 225 226 227 227 228 230 231 232 233 234 236 237 238 238 238 239 240 243 244 245 245 246 246 246 246 245 243 243 244 243 243 243 242 243 243 243 244 245 246 247 248 249 249 249 250 252 253 254 255 256 258 259 259 261 263 263 262 260 259 260 261 261 260 259 259 258 258 260 262 263 264 264 266 269
214 214 215 216 216 217 218 218 219 220 221 222 223 224 225 226 227 229 231 232 232 234 235 237 237 237 237 237 238 240 242 244 245 245 245 245 245 245 243 243 243 244 244 243 242 242 243 243 243 244 245 246 247 248 249 249 250 251 253 255 256 257 259 260 260 263 265 264 262 260 259 259 259 258 259 259 259 259 259 260 262 264 265 266 268 271
214 214 215 215 216 217 217 218 218 219 220 221 222 223 223 225 226 228 229 230 231 232 233 235 237 237 238 238 239 240 242 244 245 244 244 244 244 243 243 243 243 243 243 244 243 242 242 243 243 244 245 245 246 248 249 250 250 251 253 255 258 260 261 262 263 265 265 263 262 262 261 259 256 254 256 257 258 260 261 260 260 263 266 268 270 273
214 214 215 215 216 217 217 218 218 218 218 219 221 221 222 224 226 227 228 229 230 231 233 235 237 239 240 241 241 242 243 245 244 243 242 242 242 243 243 243 244 243 243 243 243 242 242 242 243 243 244 245 246 247 249 249 250 252 254 256 259 262 263 264 265 263 261 261 262 262 259 255 250 248 250 254 257 260 261 260 261 263 266 268 270 272
213 213 214 215 215 215 216 217 218 218 217 218 219 220 221 223 226 227 229 230 230 231 233 236 239 240 241 241 241 241 241 241 240 239 239 240 241 242 243 243 244 244 243 243 242 241 241 241 242 242 243 244 244 246 247 249 251 253 255 257 260 262 263 263 261 254 253 256 256 254 252 249 246 246 248 252 256 260 261 261 262 264 265 267 269 272
212 212 213 214 214 214 215 216 217 217 216 217 218 219 221 223 226 228 229 230 232 234 236 239 241 241 241 242 242 240 238 237 236 235 236 237 239 240 241 242 243 244 244 243 243 242 241 240 241 241 242 243 243 244 246 249 251 253 255 258 260 261 260 258 251 245 247 248 245 246 248 249 248 247 248 250 254 259 261 260 259 260 263 266 270 273
211 212 212 213 213 214 214 215 216 216 216 217 218 219 221 223 225 227 228 231 233 235 239 240 241 242 242 244 243 240 238 237 237 237 236 236 237 239 241 243 244 245 245 244 244 243 241 240 240 240 241 242 241 242 244 247 250 253 256 258 259 260 257 247 239 239 245 246 243 244 246 248 249 249 249 250 253 257 260 259 256 257 263 267 270 274
211 211 212 212 213 214 215 215 216 217 217 219 220 221 222 224 226 228 229 232 233 235 238 240 241 241 240 242 241 239 238 238 238 238 237 237 238 239 241 243 244 245 245 245 245 244 242 241 240 240 240 240 240 241 241 244 247 251 254 257 258 258 251 239 234 238 245 248 246 245 245 246 248 249 249 250 252 254 257 258 256 259 265 269 271 275
210 211 212 212 213 214 215 216 218 219 221 223 223 224 225 227 229 230 231 232 232 234 237 239 240 240 239 241 242 239 237 237 237 238 238 239 239 240 242 243 244 244 245 245 245 244 243 241 240 239 240 240 240 240 240 242 245 248 251 253 254 252 244 235 232 234 241 247 245 243 243 244 244 246 247 249 251 252 254 256 258 263 267 270 273 276
210 211 212 212 212 214 215 217 217 219 221 223 223 223 224 226 228 229 230 231 231 233 236 238 239 239 239 243 245 241 238 237 238 239 241 241 240 240 241 242 243 242 242 242 243 244 243 241 240 239 239 240 240 240 240 240 243 246 248 248 247 245 237 228 226 226 236 245 244 242 243 243 242 244 246 249 252 254 255 257 261 265 267 270 273 274
209 210 211 212 212 213 214 216 217 218 219 220 221 222 223 224 225 226 226 227 228 230 233 236 237 237 237 241 243 243 241 240 239 241 243 243 241 239 238 240 241 241 241 241 241 242 242 241 241 240 239 240 240 240 240 239 241 244 246 245 240 236 227 220 223 224 230 241 244 243 244 243 243 245 247 250 252 255 257 259 262 264 267 270 272 272
208 208 210 211 211 212 213 214 217 219 220 221 221 221 222 224 225 225 226 226 227 228 231 233 234 233 233 237 242 244 244 243 240 240 242 243 242 240 238 238 240 241 241 240 240 241 241 241 241 241 240 240 240 240 240 239 239 240 242 240 235 229 216 208 219 226 229 236 241 243 243 243 245 247 247 248 249 251 255 259 261 264 267 270 270 271
207 208 209 210 210 211 212 213 215 217 219 220 221 221 222 223 223 225 226 227 228 229 231 233 233 231 231 235 241 244 245 243 240 240 242 243 244 242 239 238 238 240 242 242 242 240 239 239 240 241 241 240 240 240 240 240 239 238 238 237 233 227 215 207 215 226 230 236 241 244 245 245 247 247 246 246 247 249 253 258 262 265 267 269 270 271
206 207 209 209 210 210 211 212 214 216 217 217 218 220 221 223 224 225 226 228 229 229 232 234 233 232 231 234 240 243 243 242 238 238 240 242 243 242 239 238 238 239 241 243 244 242 239 238 238 240 241 242 241 241 240 240 240 239 237 235 232 228 222 217 220 227 232 238 245 247 247 247 247 246 244 245 248 252 256 261 264 266 268 270 271 274
206 207 208 209 209 210 211 212 214 216 217 217 218 219 220 221 222 224 226 227 228 229 230 232 232 232 231 233 238 240 241 239 237 236 238 241 243 243 242 240 238 238 240 243 245 245 243 240 239 240 242 243 243 242 241 240 240 241 239 236 233 230 227 226 227 230 233 237 243 246 246 246 247 246 247 249 252 256 259 262 265 267 269 271 273 275
205 207 208 209 209 210 211 211 213 215 217 219 220 221 221 222 222 223 224 225 226 227 229 229 229 229 229 230 235 238 238 237 235 234 237 241 244 246 245 243 240 238 239 242 245 247 247 244 242 242 243 244 244 243 242 241 241 242 242 240 238 235 233 233 233 235 235 236 239 243 246 247 248 249 251 253 256 259 262 264 266 268 269 271 272 274
204 206 208 209 209 210 211 211 212 213 214 215 218 220 221 222 223 224 225 225 226 227 227 227 227 227 227 229 233 237 238 238 235 234 237 241 244 246 246 245 243 241 240 241 243 245 247 247 245 244 244 244 245 245 244 243 242 242 243 243 243 241 240 240 240 240 240 240 242 246 249 251 252 254 256 259 262 264 265 266 267 268 269 271 272 273
202 205 208 208 209 209 210 211 211 211 211 211 212 215 217 219 221 224 225 226 227 227 227 227 226 226 227 229 232 236 238 238 236 234 236 240 244 245 246 246 245 244 242 242 242 244 246 247 247 247 247 246 246 246 245 244 243 243 243 244 245 245 245 245 245 245 245 246 247 249 252 254 256 258 261 263 264 265 266 267 268 269 270 271 273 274
201 204 206 207 208 208 209 210 211 211 211 210 211 212 213 215 218 220 222 224 225 226 226 227 226 226 228 229 231 235 237 237 236 235 235 239 243 244 245 245 245 245 245 244 244 245 246 247 247 248 248 247 246 246 246 245 245 244 245 245 246 247 248 249 249 249 250 251 252 253 255 256 258 261 262 263 264 264 266 267 269 270 272 273 275 277
200 202 204 206 208 209 209 209 210 210 210 211 212 212 212 213 215 216 219 221 222 224 224 225 225 226 227 228 229 233 236 237 237 237 237 238 241 242 241 242 244 244 245 246 247 247 248 248 247 247 248 248 248 248 248 248 248 247 247 247 247 247 248 250 251 252 253 254 255 256 257 258 260 261 262 262 263 264 266 268 270 272 274 276 278 280
198 201 203 205 208 211 212 212 212 212 212 212 213 214 214 214 215 216 218 219 220 222 223 224 225 226 227 227 228 231 235 237 238 237 236 237 240 241 241 242 243 244 245 246 247 248 249 249 248 248 248 248 249 249 249 250 250 250 250 249 248 248 249 251 252 253 254 254 255 256 257 258 259 260 261 262 264 266 268 270 271 274 276 278 280 283
198 200 202 204 206 209 212 213 213 213 213 214 215 216 216 216 216 217 218 219 219 220 221 222 224 226 226 227 228 230 234 238 240 238 236 237 240 242 242 243 244 244 245 245 246 247 249 250 250 249 248 247 247 248 250 251 252 252 252 252 251 251 251 252 253 253 254 254 255 255 256 257 258 260 262 264 265 267 270 272 274 276 278 281 283 285
197 199 202 204 205 207 208 209 211 211 212 213 214 216 217 217 218 219 220 219 219 220 220 220 223 224 225 227 227 229 233 237 241 240 237 238 241 243 244 245 245 244 244 244 244 245 247 249 250 249 248 246 246 247 249 250 252 252 253 254 254 254 254 254 255 254 254 255 255 255 256 257 259 261 263 266 268 270 272 274 276 278 280 283 285 287
196 199 201 203 205 206 207 208 208 209 211 211 212 213 215 217 219 220 221 220 220 221 220 220 222 224 225 225 226 228 232 237 241 242 240 240 243 245 246 246 244 243 242 243 244 245 246 247 249 249 249 249 248 248 249 250 251 253 254 256 257 257 258 257 257 257 256 256 257 257 258 259 261 264 266 268 270 272 274 276 278 280 282 284 285 287
195 197 200 202 204 206 208 209 209 209 210 211 212 212 213 215 217 220 221 221 221 222 222 222 223 225 225 225 226 228 231 235 239 241 239 239 242 244 245 244 242 241 242 242 243 244 246 247 248 249 250 251 251 251 251 252 253 254 256 258 259 259 259 260 260 260 259 259 259 259 260 261 263 265 267 269 272 274 276 277 278 280 282 284 286 287
193 197 199 202 203 204 206 208 210 209 210 211 212 212 213 213 215 218 220 221 222 223 223 222 224 226 226 225 226 227 229 232 235 237 235 236 239 241 242 242 241 240 240 241 242 243 245 246 247 248 250 252 254 254 255 255 255 256 258 259 259 260 260 261 261 260 260 260 260 260 261 263 264 266 268 270 273 274 275 277 278 280 282 284 285 287
193 196 199 201 203 204 205 207 209 211 211 211 212 213 213 214 215 217 219 220 221 222 222 222 223 224 224 224 225 226 228 231 234 235 234 233 235 238 240 241 241 241 240 240 240 241 243 245 246 249 251 254 256 256 257 257 258 258 259 260 260 260 260 259 258 257 257 258 259 260 262 263 265 267 269 271 273 275 276 278 279 280 283 284 285 286
193 196 198 201 203 204 205 206 208 211 212 212 212 213 214 215 215 217 217 218 219 220 221 222 222 223 224 224 225 228 230 232 235 236 236 234 234 236 239 240 241 242 242 242 242 242 243 245 247 249 251 253 254 254 255 256 257 258 259 260 259 258 257 256 256 256 256 257 259 261 262 264 266 268 270 273 275 277 278 278 279 281 283 283 285 286
193 195 198 201 203 205 206 207 208 210 212 213 214 215 216 217 217 218 218 218 219 219 220 222 223 224 226 227 227 229 231 234 235 238 240 240 239 239 240 241 243 244 245 245 244 243 244 245 247 247 248 250 252 254 255 257 259 260 260 261 260 259 258 258 258 258 258 259 260 262 263 265 267 270 273 275 276 277 276 277 279 282 282 282 284 285
193 195 197 200 202 204 206 208 209 210 212 214 215 217 218 219 220 220 220 220 219 219 220 222 224 225 227 228 228 229 230 233 235 238 240 241 242 241 242 243 244 245 246 246 246 246 246 246 248 249 249 250 252 254 257 258 258 258 260 261 261 260 260 261 261 261 261 262 263 263 265 267 269 272 273 274 275 276 275 277 281 281 279 281 285 286
193 195 197 199 202 204 206 208 209 210 212 214 216 217 219 220 221 222 222 222 222 221 221 223 225 226 227 228 229 229 229 231 234 236 238 239 240 240 240 241 242 243 245 247 249 250 250 249 249 248 250 252 253 253 254 253 253 254 257 260 263 264 264 264 264 264 264 265 266 266 265 266 268 271 274 276 278 278 278 282 284 283 283 286 288 288
193 195 196 199 202 204 206 208 209 210 211 212 215 217 218 220 221 222 223 223 223 223 223 224 225 227 227 227 228 229 229 230 232 235 236 238 239 240 240 240 241 242 243 245 247 248 249 249 247 243 242 246 250 251 251 250 251 255 261 266 269 270 269 267 265 264 264 265 266 267 267 267 269 272 275 276 276 277 280 284 284 285 288 289 287 285
193 195 196 198 201 203 205 207 209 210 211 212 214 216 217 219 220 221 222 223 224 224 224 225 226 227 227 227 227 228 229 229 230 232 234 237 239 240 241 242 243 244 244 244 244 245 247 248 248 245 243 244 247 248 249 249 251 257 266 272 273 272 269 267 265 264 262 262 262 261 261 263 266 268 270 272 272 273 277 280 280 282 286 286 283 282
195 196 196 197 199 202 204 206 207 209 211 212 214 215 217 218 220 220 221 222 223 223 224 225 226 226 227 227 227 228 229 229 229 230 232 235 238 241 243 245 246 247 247 247 247 248 249 249 249 249 247 247 247 247 249 250 252 257 265 269 270 270 268 266 265 264 262 261 258 254 253 254 256 256 258 263 268 271 272 272 271 276 281 282 281 281
195 197 198 198 199 200 202 204 205 207 209 211 213 214 215 217 218 219 220 220 221 221 221 223 224 225 226 227 228 229 229 230 230 231 233 236 240 243 245 246 247 248 249 250 250 249 249 248 247 247 247 247 247 247 248 249 250 252 254 256 260 263 264 265 265 264 263 261 260 259 258 258 259 258 257 257 261 265 267 267 267 271 276 277 276 277
195 197 199 200 200 200 202 202 204 205 207 209 211 213 214 215 216 217 218 218 219 219 219 220 222 222 224 226 228 229 229 230 232 233 235 239 242 244 246 248 249 249 250 250 250 250 249 248 247 246 246 246 247 247 247 247 247 244 241 243 249 255 258 261 263 264 265 264 264 263 263 263 264 265 263 260 259 261 262 263 265 267 268 268 269 271
195 196 199 200 201 201 202 203 203 204 206 208 210 211 213 214 215 217 218 218 219 220 220 221 222 223 223 225 227 229 230 232 234 236 238 240 243 245 248 250 250 250 251 251 251 251 251 251 250 249 248 247 246 246 246 247 246 241 237 238 244 250 254 258 261 264 266 267 267 265 265 265 266 266 266 263 262 260 257 256 258 259 258 260 264 268
196 197 198 200 201 202 202 203 204 205 206 208 209 210 212 213 215 217 218 219 220 221 222 223 224 225 226 227 228 229 231 233 235 237 239 241 243 245 248 250 251 251 251 251 251 251 251 252 252 251 249 248 247 247 246 246 246 244 241 241 243 247 253 257 261 264 267 268 268 266 266 267 268 268 267 265 264 261 257 254 254 256 259 262 266 270
198 199 199 201 202 203 204 204 206 207 208 209 210 211 212 214 216 217 219 220 221 222 223 224 225 226 227 228 229 230 231 233 235 237 239 241 243 245 247 249 251 252 252 252 252 252 252 253 252 252 251 249 248 247 247 246 245 244 244 244 245 247 252 257 260 263 266 268 268 267 267 268 268 268 268 267 266 265 263 260 258 259 262 265 269 272
199 201 202 203 204 205 206 207 208 209 210 211 212 213 214 216 217 219 220 221 223 224 225 226 226 226 227 228 229 230 231 233 234 236 238 240 242 244 245 247 249 252 253 254 254 253 253 253 253 253 252 251 250 248 247 247 245 244 243 246 249 250 252 256 259 261 264 266 266 267 268 269 269 268 268 267 267 267 266 265 265 265 266 268 270 273
201 202 204 205 206 206 208 209 211 212 213 214 215 216 217 218 220 221 222 223 224 226 227 227 228 228 228 229 230 231 232 233 235 236 238 241 243 244 246 247 248 250 251 252 253 253 253 254 254 253 253 252 251 250 249 248 246 245 243 245 248 250 251 253 256 260 263 265 267 268 269 270 270 270 269 268 267 268 268 269 269 270 271 271 272 274
203 204 205 206 207 208 209 211 212 214 215 216 217 218 219 220 221 222 223 224 226 227 228 229 230 231 231 232 232 233 234 235 236 238 239 241 244 246 248 249 250 250 251 251 252 252 253 253 254 254 254 253 251 250 250 249 248 247 246 245 247 249 252 254 257 261 264 265 267 268 268 269 270 270 269 269 269 270 271 272 273 273 274 274 275 276
204 205 207 208 209 210 211 213 214 215 217 218 219 220 221 221 222 223 225 226 227 228 230 231 232 233 233 234 235 235 236 237 238 240 241 243 246 248 250 252 253 253 252 251 250 251 251 252 254 255 255 254 253 251 250 249 249 249 249 249 250 252 254 256 259 261 263 265 265 266 267 268 269 269 269 270 271 272 274 275 276 276 277 278 278 279
205 206 208 209 211 212 213 214 216 217 218 219 220 222 222 223 224 225 226 227 229 230 231 232 233 234 234 235 236 237 237 239 240 242 244 246 248 251 253 255 256 255 253 251 250 250 250 251 253 254 255 255 254 253 251 249 249 249 249 251 252 253 255 257 259 260 262 263 264 264 265 266 267 268 268 270 272 273 274 275 276 278 279 280 281 282
206 208 209 210 212 214 215 216 217 219 220 221 222 223 224 225 226 227 228 229 230 231 231 232 233 234 235 236 236 237 239 240 241 243 246 248 251 253 254 255 255 254 253 251 250 249 249 249 251 252 253 254 254 254 253 251 250 249 249 250 251 252 254 256 258 260 261 262 263 263 264 265 266 267 268 270 271 273 274 275 276 278 279 281 283 284
207 209 210 212 214 215 217 218 220 221 222 224 225 226 227 227 228 229 230 231 232 232 233 234 234 236 237 237 238 239 240 241 242 244 247 249 251 252 252 252 252 252 251 250 249 248 247 248 249 250 251 252 253 253 252 251 250 250 250 251 251 252 254 255 258 260 261 262 262 263 264 265 266 267 269 270 271 272 274 275 276 278 281 283 285 284
Height
10540 10549 10561 10574 10581 10586 10590 10594 10599 10602 10606 10609 10613 10618 10621 10625 10627 10625 10626 10630 10633 10638 10645 10649 10653 10655 10656 10660 10663 10667 10671 10673 10675 10677 10680 10683 10687 10692 10698 10704 10707 10709 10711 10714 10716 10717 10718 10719 10721 10723 10725 10727 10729 10732 10733 10735 10738 10741 10744 10746 10748 10750 10752 10754 10755 10757 10758 10760 10761 10762 10764 10765 10766 10767 10767 10767 10768 10768 10769 10770 10770 10771 10771 10770 10770 10770
10534 10547 10561 10568 10571 10575 10580 10586 10590 10596 10600 10602 10607 10612 10615 10620 10622 10620 10620 10624 10629 10634 10640 10644 10649 10651 10653 10656 10660 10664 10668 10669 10670 10672 10676 10680 10686 10692 10697 10700 10702 10703 10706 10708 10709 10711 10713 10715 10716 10717 10720 10722 10725 10727 10728 10731 10734 10737 10739 10742 10744 10745 10748 10749 10751 10752 10754 10755 10756 10758 10759 10760 10761 10762 10763 10764 10765 10765 10765 10766 10766 10766 10766 10767 10766 10766
10534 10548 10555 10558 10563 10568 10573 10579 10583 10589 10593 10596 10602 10607 10611 10615 10616 10614 10615 10621 10627 10631 10636 10640 10644 10648 10650 10653 10657 10660 10663 10665 10666 10669 10674 10679 10685 10689 10692 10694 10696 10697 10699 10701 10703 10706 10709 10710 10711 10712 10715 10717 10720 10722 10724 10727 10729 10732 10734 10737 10739 10741 10743 10744 10745 10747 10749 10750 10752 10753 10755 10755 10756 10757 10759 10760 10760 10761 10761 10762 10762 10762 10762 10762 10762 10762
10532 10542 10546 10549 10556 10561 10567 10573 10578 10584 10588 10592 10599 10603 10607 10610 10611 10610 10612 10618 10624 10627 10632 10635 10640 10644 10648 10651 10653 10657 10659 10661 10664 10667 10673 10679 10682 10684 10686 10688 10689 10691 10692 10694 10697 10701 10703 10705 10706 10707 10709 10712 10714 10717 10720 10722 10725 10727 10730 10732 10734 10736 10737 10738 10740 10742 10743 10745 10747 10749 10750 10751 10751 10752 10754 10755 10755 10756 10756 10757 10757 10757 10758 10758 10758 10758
10523 10532 10536 10542 10548 10553 10561 10567 10573 10580 10585 10589 10595 10599 10603 10606 10606 10605 10606 10613 10618 10622 10627 10630 10636 10642 10646 10648 10651 10653 10656 10658 10662 10666 10672 10676 10677 10678 10680 10682 10683 10685 10686 10689 10692 10695 10697 10699 10701 10702 10704 10707 10710 10712 10715 10718 10721 10723 10725 10727 10729 10730 10730 10732 10736 10737 10738 10740 10742 10744 10745 10746 10747 10748 10749 10750 10750 10751 10752 10752 10752 10753 10753 10753 10754 10754
10514 10521 10527 10533 10540 10547 10555 10562 10569 10576 10580 10585 10591 10596 10598 10600 10600 10599 10602 10609 10614 10619 10623 10627 10633 10639 10642 10645 10647 10650 10652 10655 10659 10664 10668 10671 10671 10673 10675 10676 10677 10679 10681 10683 10687 10690 10692 10694 10695 10697 10700 10703 10705 10708 10711 10714 10717 10719 10721 10722 10723 10724 10725 10728 10732 10733 10734 10735 10736 10738 10739 10740 10741 10742 10743 10744 10746 10747 10747 10747 10748 10748 10749 10749 10749 10750
10506 10514 10519 10526 10533 10541 10549 10557 10563 10569 10575 10581 10586 10590 10592 10594 10594 10594 10599 10605 10611 10616 10619 10624 10630 10634 10638 10641 10644 10646 10649 10651 10655 10660 10664 10665 10666 10667 10668 10670 10671 10673 10675 10678 10682 10684 10687 10689 10691 10693 10696 10699 10701 10703 10707 10710 10713 10715 10717 10717 10718 10719 10721 10725 10728 10729 10730 10730 10729 10730 10733 10734 10735 10736 10739 10741 10741 10742 10743 10743 10744 10744 10744 10744 10745 10746
10499 10507 10513 10520 10528 10536 10545 10553 10558 10564 10570 10576 10580 10583 10586 10588 10587 10589 10595 10601 10607 10611 10615 10621 10627 10631 10635 10638 10640 10643 10646 10650 10653 10657 10659 10659 10659 10660 10662 10664 10666 10668 10670 10674 10677 10679 10682 10684 10686 10689 10692 10695 10697 10700 10704 10706 10709 10711 10712 10713 10714 10716 10718 10721 10724 10724 10724 10724 10724 10726 10729 10730 10730 10733 10736 10737 10737 10738 10738 10739 10739 10739 10740 10740 10741 10742
10492 10499 10506 10514 10522 10532 10542 10548 10551 10556 10564 10569 10572 10575 10579 10580 10580 10584 10590 10597 10602 10607 10613 10619 10624 10628 10633 10635 10637 10641 10645 10648 10650 10652 10652 10653 10653 10655 10658 10660 10661 10664 10667 10670 10672 10674 10677 10679 10682 10686 10688 10691 10694 10698 10700 10702 10705 10707 10708 10709 10710 10713 10715 10717 10720 10720 10718 10718 10721 10723 10726 10727 10728 10730 10732 10732 10733 10733 10734 10734 10735 10735 10736 10736 10737 10737
10481 10491 10497 10505 10517 10528 10536 10540 10542 10549 10557 10560 10562 10567 10571 10573 10576 10581 10587 10594 10599 10605 10612 10617 10621 10626 10630 10631 10634 10638 10642 10643 10644 10645 10646 10647 10649 10652 10654 10655 10657 10660 10662 10665 10668 10670 10672 10675 10678 10681 10684 10687 10691 10694 10696 10698 10701 10703 10704 10706 10707 10710 10712 10715 10717 10715 10714 10716 10719 10720 10722 10724 10726 10727 10728 10728 10729 10729 10730 10730 10731 10731 10732 10733 10733 10733
10471 10481 10488 10499 10511 10520 10525 10529 10534 10541 10547 10549 10553 10560 10565 10569 10573 10578 10585 10591 10597 10606 10612 10614 10618 10624 10626 10628 10631 10634 10636 10636 10637 10639 10640 10642 10645 10648 10650 10651 10654 10656 10659 10661 10664 10666 10669 10671 10673 10676 10680 10684 10687 10691 10692 10694 10697 10699 10701 10703 10705 10707 10709 10712 10713 10711 10711 10714 10716 10717 10719 10722 10723 10724 10724 10724 10724 10726 10726 10725 10726 10727 10728 10728 10728 10728
10463 10473 10483 10495 10504 10509 10515 10520 10526 10534 10539 10541 10547 10556 10561 10566 10571 10576 10583 10589 10599 10607 10608 10610 10616 10620 10624 10626 10628 10630 10630 10631 10634 10635 10636 10638 10641 10644 10647 10649 10651 10653 10655 10658 10660 10663 10665 10666 10669 10672 10676 10679 10683 10687 10689 10691 10693 10695 10698 10700 10702 10705 10707 10709 10708 10707 10708 10711 10713 10715 10717 10719 10719 10720 10720 10720 10720 10721 10721 10721 10721 10722 10724 10724 10724 10724
10460 10471 10479 10487 10494 10502 10509 10515 10521 10528 10532 10536 10545 10554 10560 10564 10569 10575 10583 10591 10600 10604 10603 10607 10612 10617 10622 10623 10623 10625 10626 10627 10630 10630 10632 10635 10639 10643 10645 10647 10649 10650 10652 10654 10656 10659 10660 10662 10665 10668 10671 10675 10679 10683 10685 10687 10690 10693 10696 10697 10699 10703 10705 10706 10705 10706 10707 10708 10711 10713 10714 10715 10715 10715 10716 10716 10716 10716 10717 10717 10717 10718 10719 10720 10720 10720
10455 10463 10470 10479 10490 10499 10507 10514 10523 10530 10534 10539 10549 10556 10560 10565 10571 10578 10584 10591 10596 10598 10599 10604 10608 10614 10619 10619 10619 10622 10622 10623 10625 10626 10630 10633 10637 10640 10642 10644 10646 10647 10648 10650 10652 10654 10655 10657 10660 10663 10666 10670 10675 10678 10681 10684 10687 10690 10693 10694 10697 10700 10703 10704 10703 10705 10706 10705 10707 10709 10709 10710 10711 10711 10712 10711 10711 10711 10712 10712 10713 10714 10715 10716 10715 10715
10449 10459 10469 10481 10492 10499 10506 10515 10523 10527 10530 10537 10546 10552 10557 10563 10570 10576 10582 10587 10591 10594 10595 10599 10606 10613 10617 10616 10615 10617 10617 10619 10622 10625 10629 10631 10634 10637 10638 10640 10641 10642 10644 10646 10648 10649 10650 10653 10655 10658 10662 10666 10670 10674 10677 10680 10683 10686 10689 10692 10695 10697 10700 10702 10702 10703 10704 10701 10701 10704 10704 10705 10707 10707 10708 10706 10706 10707 10708 10709 10710 10710 10711 10711 10711 10710
10443 10456 10469 10479 10487 10495 10502 10510 10514 10515 10519 10529 10538 10546 10553 10560 10565 10570 10575 10580 10584 10588 10591 10596 10604 10610 10613 10612 10610 10612 10615 10617 10620 10624 10626 10628 10629 10631 10633 10634 10636 10637 10640 10642 10643 10645 10646 10648 10651 10654 10658 10662 10666 10670 10673 10676 10679 10682 10685 10688 10692 10695 10698 10700 10701 10703 10703 10698 10696 10698 10700 10701 10702 10703 10703 10701 10701 10702 10704 10705 10706 10706 10706 10706 10706 10705
10439 10451 10461 10469 10479 10488 10495 10502 10506 10510 10517 10527 10537 10547 10553 10556 10560 10565 10571 10575 10580 10585 10589 10594 10601 10606 10608 10607 10605 10608 10612 10614 10617 10620 10621 10623 10624 10625 10628 10629 10631 10633 10636 10638 10640 10641 10643 10645 10647 10651 10654 10658 10662 10665 10668 10672 10675 10679 10682 10685 10689 10693 10696 10699 10700 10702 10700 10694 10693 10695 10697 10697 10698 10698 10698 10697 10697 10698 10699 10700 10701 10701 10702 10701 10700 10699
10436 10446 10454 10464 10474 10481 10488 10493 10498 10504 10515 10527 10539 10545 10546 10548 10555 10562 10568 10573 10578 10584 10587 10592 10598 10602 10605 10604 10602 10606 10610 10611 10614 10616 10617 10619 10618 10619 10622 10624 10627 10630 10632 10634 10636 10637 10639 10641 10644 10647 10650 10654 10658 10661 10664 10667 10671 10675 10678 10681 10685 10690 10694 10698 10699 10698 10695 10693 10692 10692 10693 10694 10694 10694 10694 10693 10693 10693 10694 10696 10696 10696 10697 10696 10695 10694
10428 10438 10448 10458 10465 10471 10478 10484 10491 10501 10513 10525 10533 10535 10538 10546 10555 10561 10566 10571 10577 10582 10585 10589 10595 10599 10602 10602 10600 10603 10607 10608 10610 10611 10613 10614 10612 10614 10617 10621 10624 10627 10629 10630 10631 10633 10635 10637 10641 10644 10647 10650 10654 10657 10660 10663 10666 10670 10674 10678 10681 10686 10692 10695 10695 10692 10692 10693 10691 10688 10689 10690 10690 10690 10689 10689 10689 10689 10690 10691 10691 10691 10691 10690 10689 10688
10422 10431 10440 10449 10456 10463 10470 10480 10493 10505 10514 10520 10525 10530 10537 10546 10553 10557 10563 10569 10574 10579 10582 10587 10592 10596 10600 10599 10597 10600 10604 10605 10606 10608 10609 10608 10607 10610 10615 10618 10621 10624 10626 10626 10627 10629 10632 10635 10639 10641 10644 10647 10650 10653 10656 10659 10662 10665 10669 10672 10676 10681 10685 10687 10687 10687 10689 10691 10688 10685 10685 10686 10686 10686 10685 10685 10685 10686 10686 10687 10686 10686 10685 10684 10684 10683
10417 10426 10434 10441 10449 10459 10473 10488 10500 10507 10513 10520 10526 10532 10538 10544 10549 10553 10559 10565 10571 10575 10579 10583 10588 10593 10596 10596 10594 10597 10600 10601 10603 10604 10604 10604 10605 10609 10612 10615 10618 10620 10622 10623 10624 10626 10629 10632 10635 10637 10640 10644 10646 10648 10651 10654 10657 10660 10663 10667 10670 10674 10677 10679 10681 10682 10684 10686 10684 10682 10681 10681 10681 10681 10681 10681 10682 10682 10682 10682 10681 10681 10680 10679 10679 10679
10412 10420 10428 10438 10453 10469 10483 10490 10493 10497 10505 10514 10522 10528 10534 10541 10546 10551 10557 10564 10568 10571 10575 10579 10585 10589 10591 10592 10592 10593 10597 10599 10600 10601 10601 10602 10604 10606 10609 10611 10614 10616 10618 10619 10621 10623 10625 10628 10631 10633 10636 10640 10642 10644 10646 10650 10653 10655 10658 10661 10664 10667 10669 10672 10674 10676 10677 10679 10679 10677 10677 10676 10676 10676 10677 10677 10678 10678 10677 10677 10677 10676 10675 10675 10675 10674
10405 10414 10426 10442 10458 10468 10472 10474 10478 10485 10495 10503 10511 10519 10527 10536 10543 10550 10557 10561 10564 10568 10572 10577 10582 10585 10588 10590 10589 10591 10595 10597 10597 10598 10599 10600 10602 10604 10606 10608 10610 10612 10614 10616 10618 10620 10622 10624 10627 10629 10632 10635 10638 10640 10642 10645 10648 10650 10653 10656 10658 10661 10663 10665 10667 10669 10671 10672 10672 10672 10672 10671 10671 10672 10672 10673 10673 10673 10673 10672 10672 10672 10671 10670 10670 10669
10399 10411 10426 10440 10447 10450 10454 10461 10468 10478 10487 10497 10506 10514 10524 10534 10541 10546 10551 10554 10559 10565 10570 10574 10579 10582 10585 10587 10587 10588 10591 10593 10594 10595 10596 10598 10600 10601 10603 10605 10606 10608 10610 10613 10615 10617 10619 10621 10623 10625 10627 10630 10633 10635 10637 10639 10642 10645 10648 10651 10653 10655 10657 10659 10661 10663 10664 10666 10666 10666 10666 10666 10667 10667 10668 10669 10669 10669 10668 10669 10668 10667 10666 10666 10665 10664
10396 10408 10420 10428 10431 10436 10442 10449 10460 10474 10488 10500 10508 10516 10524 10530 10534 10540 10545 10550 10557 10562 10567 10571 10575 10578 10581 10584 10585 10585 10587 10590 10591 10592 10594 10596 10596 10597 10599 10601 10602 10605 10607 10610 10612 10614 10615 10617 10619 10621 10623 10626 10629 10631 10632 10635 10638 10641 10643 10645 10648 10649 10651 10653 10655 10657 10659 10660 10661 10661 10661 10661 10662 10663 10663 10664 10664 10664 10664 10664 10663 10662 10661 10661 10660 10659
10390 10402 10413 10421 10430 10440 10450 10462 10476 10489 10499 10506 10510 10516 10522 10527 10531 10537 10541 10547 10554 10559 10564 10568 10572 10575 10578 10580 10582 10583 10584 10586 10588 10589 10591 10592 10591 10593 10596 10598 10599 10602 10604 10606 10608 10610 10611 10613 10615 10617 10620 10622 10625 10626 10628 10631 10633 10636 10638 10640 10642 10644 10647 10648 10650 10652 10653 10655 10655 10656 10656 10656 10657 10657 10658 10658 10659 10659 10659 10659 10658 10657 10656 10655 10655 10654
10391 10402 10412 10423 10435 10448 10462 10476 10486 10493 10500 10506 10510 10515 10520 10525 10529 10533 10538 10545 10551 10556 10561 10565 10568 10571 10574 10577 10580 10581 10581 10583 10584 10586 10588 10588 10587 10589 10593 10595 10597 10600 10602 10603 10604 10605 10606 10608 10611 10613 10616 10618 10621 10622 10624 10627 10629 10631 10633 10635 10637 10640 10642 10644 10646 10647 10648 10650 10650 10651 10651 10651 10652 10652 10653 10653 10653 10653 10653 10653 10652 10651 10651 10650 10649 10648
10397 10408 10418 10427 10436 10445 10456 10466 10475 10484 10493 10500 10505 10511 10517 10522 10526 10531 10537 10543 10548 10552 10557 10561 10564 10567 10571 10574 10576 10578 10579 10580 10581 10583 10584 10584 10584 10586 10590 10592 10594 10596 10598 10599 10600 10601 10602 10604 10607 10609 10611 10614 10616 10619 10621 10623 10624 10626 10628 10630 10633 10636 10637 10639 10641 10642 10644 10645 10645 10646 10646 10646 10647 10647 10647 10648 10648 10648 10648 10648 10647 10646 10645 10644 10643 10643
10402 10412 10422 10430 10438 10446 10453 10461 10470 10479 10487 10493 10498 10506 10513 10519 10524 10530 10535 10540 10544 10550 10554 10558 10561 10564 10567 10569 10572 10575 10576 10578 10579 10581 10582 10581 10581 10584 10587 10589 10591 10592 10593 10594 10595 10596 10598 10600 10603 10605 10607 10610 10612 10615 10617 10619 10620 10622 10623 10626 10629 10631 10633 10634 10636 10637 10639 10639 10640 10640 10640 10641 10641 10641 10642 10642 10642 10642 10642 10642 10641 10640 10639 10638 10637 10637
10405 10415 10423 10429 10437 10446 10454 10461 10468 10476 10483 10489 10495 10501 10508 10514 10520 10526 10531 10537 10543 10547 10552 10555 10558 10560 10563 10566 10569 10571 10574 10575 10577 10578 10579 10578 10578 10580 10582 10584 10586 10587 10588 10590 10591 10592 10594 10596 10599 10601 10603 10606 10609 10611 10613 10614 10616 10618 10619 10622 10625 10627 10628 10629 10631 10632 10633 10634 10634 10634 10635 10635 10635 10635 10635 10636 10636 10636 10636 10635 10634 10634 10633 10632 10631 10631
10406 10414 10420 10428 10436 10444 10452 10460 10467 10474 10480 10486 10492 10498 10504 10510 10516 10522 10527 10534 10540 10544 10549 10552 10555 10557 10560 10562 10564 10567 10570 10572 10573 10574 10575 10575 10575 10576 10577 10579 10581 10583 10584 10586 10587 10589 10590 10592 10594 10597 10599 10602 10605 10607 10609 10610 10612 10614 10616 10618 10620 10622 10623 10625 10626 10626 10627 10627 10628 10628 10629 10629 10629 10630 10630 10630 10630 10630 10629 10629 10628 10628 10627 10626 10625 10625
10405 10412 10419 10427 10435 10442 10450 10458 10465 10472 10477 10482 10489 10495 10501 10507 10513 10518 10524 10531 10536 10541 10545 10548 10550 10552 10554 10557 10559 10563 10566 10568 10569 10570 10570 10570 10571 10571 10571 10574 10576 10577 10579 10581 10583 10585 10586 10588 10590 10594 10597 10600 10602 10603 10605 10606 10608 10610 10612 10614 10616 10617 10618 10619 10620 10621 10621 10621 10622 10622 10623 10624 10624 10624 10624 10625 10625 10624 10623 10622 10622 10622 10621 10620 10619 10618
10403 10411 10420 10427 10434 10441 10449 10456 10463 10468 10474 10480 10487 10493 10498 10505 10510 10515 10521 10527 10532 10537 10540 10543 10545 10547 10550 10553 10556 10559 10562 10564 10565 10565 10566 10566 10567 10566 10567 10569 10571 10573 10575 10577 10580 10582 10583 10585 10589 10592 10595 10597 10598 10599 10601 10603 10604 10606 10607 10609 10611 10612 10613 10613 10614 10615 10616 10616 10617 10617 10618 10619 10619 10619 10620 10620 10619 10618 10617 10615 10615 10616 10616 10614 10613 10612
10403 10411 10418 10426 10433 10441 10447 10453 10459 10466 10473 10481 10488 10493 10498 10503 10507 10513 10518 10523 10528 10532 10535 10537 10540 10543 10547 10550 10554 10556 10558 10559 10560 10561 10562 10563 10563 10563 10564 10565 10567 10569 10571 10573 10576 10578 10581 10584 10587 10590 10592 10593 10593 10595 10597 10599 10601 10602 10604 10605 10606 10607 10608 10609 10610 10611 10612 10612 10613 10613 10613 10614 10614 10614 10615 10615 10614 10613 10611 10610 10609 10610 10610 10609 10608 10606
10404 10411 10418 10424 10431 10438 10445 10452 10458 10466 10474 10481 10486 10491 10496 10501 10505 10510 10515 10520 10524 10527 10530 10532 10536 10541 10544 10548 10551 10553 10554 10555 10556 10558 10559 10560 10560 10560 10561 10563 10564 10566 10567 10569 10571 10575 10578 10582 10585 10588 10589 10589 10590 10591 10593 10596 10598 10599 10599 10600 10601 10603 10603 10604 10606 10607 10608 10609 10609 10609 10609 10609 10609 10610 10610 10610 10609 10608 10606 10605 10605 10605 10604 10603 10602 10600
10403 10410 10416 10423 10429 10436 10444 10451 10458 10466 10473 10479 10483 10488 10493 10498 10503 10508 10512 10517 10521 10523 10526 10529 10533 10538 10542 10544 10546 10548 10549 10551 10552 10553 10554 10554 10555 10556 10557 10559 10560 10562 10563 10566 10569 10572 10576 10579 10583 10587 10587 10585 10586 10588 10590 10592 10593 10594 10595 10596 10597 10598 10599 10601 10602 10603 10604 10605 10605 10604 10605 10605 10605 10606 10606 10606 10605 10603 10600 10601 10601 10599 10598 10598 10596 10595
10402 10409 10417 10424 10430 10437 10444 10450 10458 10465 10471 10475 10480 10485 10490 10495 10500 10504 10509 10513 10516 10520 10523 10527 10531 10535 10537 10539 10541 10542 10545 10547 10547 10548 10548 10549 10550 10551 10553 10554 10556 10558 10560 10563 10566 10568 10570 10573 10578 10582 10582 10580 10581 10583 10586 10588 10589 10590 10591 10592 10593 10594 10595 10596 10598 10599 10600 10601 10601 10601 10601 10601 10602 10602 10602 10602 10601 10597 10596 10598 10597 10593 10592 10592 10591 10589
10404 10410 10417 10424 10430 10437 10443 10449 10456 10462 10467 10473 10478 10483 10488 10492 10496 10501 10505 10509 10512 10516 10519 10523 10527 10530 10532 10533 10535 10536 10539 10542 10543 10543 10543 10544 10545 10547 10548 10551 10553 10555 10557 10559 10562 10564 10566 10568 10572 10575 10577 10577 10577 10579 10582 10584 10585 10587 10588 10589 10589 10590 10590 10591 10592 10594 10596 10598 10599 10598 10598 10598 10598 10598 10599 10597 10595 10593 10593 10594 10593 10589 10588 10588 10586 10584
10405 10410 10415 10421 10428 10434 10441 10448 10455 10460 10465 10471 10476 10480 10485 10488 10493 10497 10500 10504 10507 10511 10515 10519 10522 10524 10526 10527 10529 10531 10534 10536 10537 10537 10538 10539 10541 10543 10545 10548 10550 10552 10554 10556 10559 10561 10564 10565 10567 10570 10572 10572 10574 10576 10578 10580 10583 10586 10588 10587 10586 10585 10586 10586 10587 10589 10591 10593 10594 10593 10594 10594 10593 10594 10595 10593 10590 10590 10591 10591 10589 10585 10585 10584 10582 10578
10404 10410 10414 10419 10425 10431 10438 10445 10451 10457 10462 10467 10472 10476 10480 10484 10488 10492 10494 10498 10502 10506 10510 10513 10516 10518 10520 10521 10524 10526 10528 10530 10531 10533 10535 10537 10538 10541 10543 10545 10547 10549 10551 10553 10556 10558 10560 10561 10562 10564 10566 10567 10569 10572 10574 10576 10579 10583 10585 10584 10582 10581 10582 10582 10583 10584 10585 10586 10587 10587 10588 10588 10587 10588 10591 10590 10586 10585 10587 10586 10584 10582 10582 10580 10577 10573
10402 10408 10414 10419 10424 10429 10435 10441 10447 10452 10458 10462 10466 10470 10475 10479 10483 10485 10487 10492 10496 10499 10502 10506 10509 10512 10514 10515 10518 10520 10522 10524 10527 10531 10534 10535 10536 10537 10539 10542 10544 10546 10547 10549 10551 10553 10554 10556 10557 10559 10560 10563 10565 10567 10569 10571 10575 10578 10579 10578 10577 10577 10578 10578 10578 10578 10579 10580 10580 10580 10581 10581 10581 10583 10585 10584 10582 10582 10582 10581 10580 10579 10578 10575 10571 10568
10400 10406 10412 10418 10422 10427 10432 10437 10442 10447 10451 10455 10459 10464 10469 10473 10475 10477 10482 10487 10490 10493 10497 10501 10504 10506 10509 10511 10513 10516 10519 10521 10524 10528 10530 10531 10532 10534 10536 10538 10540 10542 10543 10545 10547 10548 10550 10551 10553 10554 10556 10558 10560 10562 10565 10567 10570 10572 10573 10573 10572 10572 10572 10573 10572 10573 10574 10574 10575 10575 10575 10575 10576 10577 10578 10578 10577 10577 10576 10576 10574 10572 10569 10567 10564 10562
10399 10404 10409 10414 10419 10424 10428 10433 10438 10443 10446 10450 10454 10458 10462 10466 10469 10473 10479 10483 10486 10489 10493 10497 10500 10503 10505 10508 10511 10513 10516 10518 10521 10523 10525 10526 10529 10531 10532 10533 10535 10537 10539 10540 10542 10543 10545 10546 10548 10550 10551 10553 10555 10557 10560 10562 10564 10567 10568 10568 10567 10566 10567 10567 10567 10568 10569 10569 10569 10569 10569 10569 10570 10571 10571 10571 10571 10570 10570 10570 10568 10565 10563 10561 10560 10558
10397 10402 10407 10411 10416 10421 10425 10430 10434 10438 10442 10446 10450 10454 10458 10462 10467 10471 10475 10478 10481 10485 10489 10492 10495 10499 10501 10504 10507 10509 10512 10514 10516 10518 10520 10522 10524 10526 10528 10529 10530 10531 10533 10535 10537 10539 10540 10541 10543 10545 10546 10548 10550 10552 10554 10556 10559 10562 10563 10561 10560 10561 10561 10562 10562 10563 10564 10564 10564 10564 10563 10564 10564 10564 10565 10565 10564 10564 10564 10564 10563 10561 10559 10558 10557 10555
10396 10401 10405 10410 10415 10419 10424 10428 10432 10435 10439 10443 10447 10452 10456 10460 10464 10468 10471 10475 10478 10481 10484 10488 10491 10494 10497 10499 10502 10504 10506 10509 10511 10513 10516 10518 10519 10521 10522 10524 10525 10526 10528 10530 10532 10533 10535 10536 10538 10539 10541 10542 10544 10546 10548 10550 10553 10556 10556 10555 10554 10555 10556 10557 10557 10557 10558 10558 10558 10558 10558 10558 10558 10558 10558 10558 10558 10557 10557 10557 10556 10556 10555 10554 10552 10551
10395 10400 10404 10408 10413 10418 10422 10426 10429 10433 10437 10441 10445 10450 10454 10458 10461 10465 10468 10471 10473 10477 10481 10484 10487 10489 10492 10494 10497 10499 10502 10504 10507 10509 10512 10513 10513 10514 10517 10519 10521 10522 10523 10525 10526 10528 10529 10531 10532 10533 10535 10536 10538 10540 10542 10544 10546 10548 10550 10550 10549 10548 10549 10551 10551 10551 10552 10553 10553 10553 10553 10552 10552 10552 10552 10552 10551 10551 10550 10550 10550 10550 10549 10548 10547 10545
10394 10398 10403 10407 10411 10415 10418 10422 10426 10430 10434 10438 10442 10446 10450 10454 10457 10460 10463 10466 10469 10472 10476 10479 10482 10485 10488 10490 10492 10495 10498 10500 10502 10505 10506 10507 10507 10509 10512 10515 10517 10518 10519 10520 10522 10523 10524 10525 10526 10527 10528 10530 10532 10534 10536 10538 10540 10542 10544 10544 10544 10543 10544 10545 10545 10545 10546 10547 10547 10548 10547 10547 10546 10546 10546 10546 10545 10544 10544 10544 10544 10544 10542 10541 10540 10539
10392 10397 10401 10404 10408 10412 10416 10419 10423 10426 10430 10433 10437 10441 10445 10449 10452 10455 10458 10461 10465 10468 10471 10475 10477 10480 10482 10485 10488 10490 10493 10495 10496 10499 10501 10501 10502 10504 10507 10510 10512 10514 10516 10517 10517 10518 10518 10519 10520 10521 10522 10523 10525 10528 10530 10532 10534 10535 10536 10537 10538 10539 10539 10539 10539 10540 10540 10541 10541 10541 10541 10541 10541 10541 10540 10540 10539 10539 10538 10537 10537 10536 10536 10535 10534 10532
10390 10394 10398 10401 10405 10409 10412 10416 10419 10422 10425 10428 10432 10436 10440 10444 10447 10451 10454 10458 10461 10464 10467 10470 10472 10474 10477 10480 10482 10484 10487 10489 10491 10493 10495 10496 10498 10500 10503 10505 10507 10509 10510 10511 10512 10513 10513 10514 10514 10515 10515 10517 10518 10521 10523 10525 10526 10528 10529 10531 10532 10533 10532 10532 10533 10534 10534 10534 10534 10534 10534 10535 10535 10535 10534 10534 10533 10533 10532 10531 10530 10530 10529 10528 10527 10525
10387 10390 10394 10398 10401 10404 10408 10411 10414 10417 10420 10424 10427 10431 10435 10439 10443 10446 10450 10454 10456 10459 10462 10464 10466 10469 10471 10474 10477 10479 10481 10483 10486 10488 10490 10491 10493 10496 10498 10499 10501 10502 10504 10505 10506 10507 10508 10508 10508 10508 10509 10510 10512 10514 10516 10517 10519 10520 10522 10524 10525 10526 10526 10526 10526 10527 10527 10527 10527 10528 10528 10528 10528 10529 10528 10527 10527 10526 10525 10524 10524 10523 10523 10522 10521 10519
10384 10388 10391 10394 10397 10400 10404 10407 10410 10413 10417 10420 10424 10427 10431 10435 10438 10442 10445 10448 10450 10453 10456 10459 10462 10464 10466 10469 10472 10474 10476 10478 10481 10483 10484 10486 10488 10490 10491 10493 10494 10496 10497 10498 10499 10500 10501 10501 10501 10502 10503 10504 10505 10507 10508 10509 10511 10513 10514 10516 10518 10519 10519 10519 10520 10520 10520 10520 10521 10521 10520 10521 10522 10522 10521 10520 10520 10519 10518 10518 10517 10517 10516 10515 10514 10512